^^
Your Local Weather - Clay, NY Station Historical Data
Daily Summary for January 28, 2017 Units:  Metric    English   Both
« Previous Day
Next Day »
Daily Weekly Monthly Yearly Custom
  High: Low: Average:
Temperature: 0.9 °C -1.6 °C -0.6 °C
Dew Point: -3.6 °C -6.3 °C -4.8 °C
Humidity: 85% 61% 73%
Wind Speed: 9.7km/h 1.6km/h 6.3km/h
Wind Gust: 22.5km/h - -
Wind- - WSW
Pressure: 1002.3 hPa 1000.2 hPa -
Precipitation: 0 mm    
Historical Graphs
 
 
Tabular Data for January 28, 2017
Time Temperature Dew Point Pressure Wind Wind Speed Wind Gust Humidity Rainfall Rate (Hourly) solar
00:04 -0.1 °C -5.3 °C 1000.6 hPa NW 4.8 km/h 11.3 km/h 68% 0 mm 0 W/m2
00:09 -0.1 °C -5.3 °C 1000.6 hPa WNW 6.4 km/h 11.3 km/h 68% 0 mm 0 W/m2
00:16 -0.1 °C -5.3 °C 1000.6 hPa West 8 km/h 14.5 km/h 68% 0 mm 0 W/m2
00:22 -0.2 °C -5.2 °C 1000.6 hPa WSW 6.4 km/h 11.3 km/h 69% 0 mm 0 W/m2
00:28 -0.2 °C -5.2 °C 1000.6 hPa West 4.8 km/h 11.3 km/h 69% 0 mm 0 W/m2
00:39 -0.2 °C -5.2 °C 1000.6 hPa WSW 6.4 km/h 6.4 km/h 69% 0 mm 0 W/m2
00:46 -0.3 °C -5.3 °C 1000.2 hPa West 4.8 km/h 9.7 km/h 69% 0 mm 0 W/m2
00:52 -0.3 °C -5.2 °C 1000.2 hPa NW 6.4 km/h 9.7 km/h 70% 0 mm 0 W/m2
00:58 -0.3 °C -5.2 °C 1000.2 hPa WSW 4.8 km/h 9.7 km/h 70% 0 mm 0 W/m2
01:04 -0.4 °C -5.2 °C 1000.2 hPa West 4.8 km/h 4.8 km/h 70% 0 mm 0 W/m2
01:10 -0.4 °C -5.2 °C 1000.2 hPa West 6.4 km/h 11.3 km/h 70% 0 mm 0 W/m2
01:15 -0.4 °C -5 °C 1000.2 hPa West 6.4 km/h 11.3 km/h 71% 0 mm 0 W/m2
01:22 -0.4 °C -5.2 °C 1000.2 hPa WNW 8 km/h 8 km/h 70% 0 mm 0 W/m2
01:28 -0.4 °C -5 °C 1000.2 hPa WSW 6.4 km/h 9.7 km/h 71% 0 mm 0 W/m2
01:33 -0.4 °C -5.2 °C 1000.2 hPa West 6.4 km/h 16.1 km/h 70% 0 mm 0 W/m2
01:39 -0.3 °C -5.2 °C 1000.2 hPa West 8 km/h 8 km/h 70% 0 mm 0 W/m2
01:46 -0.4 °C -5.2 °C 1000.2 hPa SW 8 km/h 9.7 km/h 70% 0 mm 0 W/m2
01:52 -0.4 °C -5.3 °C 1000.2 hPa WSW 6.4 km/h 8 km/h 70% 0 mm 0 W/m2
01:58 -0.4 °C -5.1 °C 1000.6 hPa West 6.4 km/h 9.7 km/h 71% 0 mm 0 W/m2
02:04 -0.5 °C -4.9 °C 1000.6 hPa WSW 6.4 km/h 11.3 km/h 72% 0 mm 0 W/m2
02:10 -0.5 °C -5.1 °C 1000.6 hPa West 9.7 km/h 9.7 km/h 71% 0 mm 0 W/m2
02:15 -0.5 °C -5.1 °C 1000.6 hPa WSW 8 km/h 12.9 km/h 71% 0 mm 0 W/m2
02:22 -0.6 °C -5.2 °C 1000.6 hPa WSW 6.4 km/h 6.4 km/h 71% 0 mm 0 W/m2
02:34 -0.6 °C -5.2 °C 1000.6 hPa SW 8 km/h 8 km/h 71% 0 mm 0 W/m2
02:40 -0.6 °C -5.2 °C 1000.6 hPa SW 6.4 km/h 6.4 km/h 71% 0 mm 0 W/m2
02:45 -0.6 °C -5.2 °C 1000.6 hPa West 8 km/h 8 km/h 71% 0 mm 0 W/m2
02:52 -0.6 °C -5.2 °C 1000.9 hPa West 6.4 km/h 8 km/h 71% 0 mm 0 W/m2
02:58 -0.6 °C -5.2 °C 1000.9 hPa WSW 8 km/h 12.9 km/h 71% 0 mm 0 W/m2
03:03 -0.6 °C -5.2 °C 1000.9 hPa West 8 km/h 11.3 km/h 71% 0 mm 0 W/m2
03:09 -0.6 °C -5.2 °C 1000.9 hPa West 6.4 km/h 6.4 km/h 71% 0 mm 0 W/m2
03:16 -0.6 °C -5.2 °C 1000.9 hPa SSW 8 km/h 11.3 km/h 71% 0 mm 0 W/m2
03:22 -0.6 °C -5.2 °C 1000.9 hPa WSW 8 km/h 9.7 km/h 71% 0 mm 0 W/m2
03:28 -0.6 °C -5.2 °C 1000.9 hPa SSW 6.4 km/h 11.3 km/h 71% 0 mm 0 W/m2
03:34 -0.6 °C -5.2 °C 1000.6 hPa West 4.8 km/h 8 km/h 71% 0 mm 0 W/m2
03:39 -0.6 °C -5.2 °C 1000.6 hPa West 4.8 km/h 11.3 km/h 71% 0 mm 0 W/m2
03:46 -0.6 °C -5.2 °C 1000.6 hPa WSW 8 km/h 11.3 km/h 71% 0 mm 0 W/m2
03:52 -0.6 °C -5.2 °C 1000.6 hPa West 6.4 km/h 6.4 km/h 71% 0 mm 0 W/m2
03:58 -0.6 °C -5.2 °C 1000.6 hPa WSW 4.8 km/h 6.4 km/h 71% 0 mm 0 W/m2
04:04 -0.6 °C -5.2 °C 1000.6 hPa West 6.4 km/h 6.4 km/h 71% 0 mm 0 W/m2
04:10 -0.6 °C -5.2 °C 1000.6 hPa WNW 4.8 km/h 9.7 km/h 71% 0 mm 0 W/m2
04:15 -0.6 °C -5.2 °C 1000.6 hPa WNW 6.4 km/h 9.7 km/h 71% 0 mm 0 W/m2
04:22 -0.6 °C -5.2 °C 1000.6 hPa WSW 8 km/h 9.7 km/h 71% 0 mm 0 W/m2
04:28 -0.6 °C -5.2 °C 1000.6 hPa SW 6.4 km/h 12.9 km/h 71% 0 mm 0 W/m2
04:34 -0.7 °C -5.3 °C 1000.6 hPa SW 8 km/h 8 km/h 71% 0 mm 0 W/m2
04:52 -0.6 °C -5.1 °C 1000.2 hPa SSW 8 km/h 11.3 km/h 72% 0 mm 0 W/m2
04:58 -0.7 °C -5.1 °C 1000.2 hPa West 8 km/h 11.3 km/h 72% 0 mm 0 W/m2
05:04 -0.7 °C -5.1 °C 1000.2 hPa WSW 8 km/h 14.5 km/h 72% 0 mm 0 W/m2
05:10 -0.7 °C -5.1 °C 1000.6 hPa West 8 km/h 8 km/h 72% 0 mm 0 W/m2
05:16 -0.7 °C -5.1 °C 1000.6 hPa West 6.4 km/h 8 km/h 72% 0 mm 0 W/m2
05:22 -0.7 °C -4.9 °C 1000.6 hPa WSW 4.8 km/h 12.9 km/h 73% 0 mm 0 W/m2
05:28 -0.7 °C -4.9 °C 1000.9 hPa WNW 6.4 km/h 12.9 km/h 73% 0 mm 0 W/m2
05:34 -0.7 °C -4.9 °C 1000.6 hPa West 6.4 km/h 6.4 km/h 73% 0 mm 0 W/m2
05:40 -0.7 °C -4.9 °C 1000.9 hPa WSW 6.4 km/h 8 km/h 73% 0 mm 0 W/m2
05:46 -0.7 °C -4.9 °C 1000.9 hPa SW 6.4 km/h 12.9 km/h 73% 0 mm 0 W/m2
05:52 -0.7 °C -4.9 °C 1000.9 hPa West 6.4 km/h 6.4 km/h 73% 0 mm 0 W/m2
06:09 -0.7 °C -4.9 °C 1000.9 hPa WNW 6.4 km/h 6.4 km/h 73% 0 mm 0 W/m2
06:16 -0.8 °C -5 °C 1000.9 hPa WSW 6.4 km/h 8 km/h 73% 0 mm 0 W/m2
06:22 -0.7 °C -4.9 °C 1000.9 hPa WSW 6.4 km/h 9.7 km/h 73% 0 mm 0 W/m2
06:29 -0.7 °C -4.9 °C 1000.9 hPa West 4.8 km/h 4.8 km/h 73% 0 mm 0 W/m2
06:35 -0.8 °C -5 °C 1000.9 hPa WSW 3.2 km/h 8 km/h 73% 0 mm 0 W/m2
06:42 -0.8 °C -5.2 °C 1000.9 hPa SW 4.8 km/h 11.3 km/h 72% 0 mm 0 W/m2
06:48 -0.7 °C -5.2 °C 1000.9 hPa WSW 4.8 km/h 11.3 km/h 72% 0 mm 0 W/m2
06:53 -0.7 °C -5.3 °C 1000.9 hPa SW 6.4 km/h 17.7 km/h 71% 0 mm 0 W/m2
06:59 -0.7 °C -5.5 °C 1000.9 hPa WSW 8 km/h 8 km/h 70% 0 mm 0 W/m2
07:06 -0.7 °C -5.3 °C 1001.2 hPa West 6.4 km/h 8 km/h 71% 0 mm 0 W/m2
07:12 -0.8 °C -5.2 °C 1000.9 hPa SW 6.4 km/h 6.4 km/h 72% 0 mm 0 W/m2
07:18 -0.8 °C -5.3 °C 1001.2 hPa West 6.4 km/h 6.4 km/h 72% 0 mm 0 W/m2
07:24 -0.9 °C -5.1 °C 1000.9 hPa WSW 8 km/h 12.9 km/h 73% 0 mm 0 W/m2
07:30 -0.9 °C -4.9 °C 1001.2 hPa West 6.4 km/h 8 km/h 74% 0 mm 0 W/m2
07:35 -0.9 °C -5 °C 1001.2 hPa WNW 6.4 km/h 11.3 km/h 74% 0 mm 5 W/m2
07:42 -0.9 °C -5 °C 1001.2 hPa West 6.4 km/h 6.4 km/h 74% 0 mm 7 W/m2
07:54 -0.9 °C -5 °C 1001.2 hPa WSW 6.4 km/h 9.7 km/h 74% 0 mm 11 W/m2
07:59 -1 °C -5.1 °C 1001.2 hPa West 6.4 km/h 17.7 km/h 74% 0 mm 12 W/m2
08:06 -1 °C -5.1 °C 1001.2 hPa WSW 8 km/h 17.7 km/h 74% 0 mm 16 W/m2
08:12 -1.1 °C -5.1 °C 1001.6 hPa West 6.4 km/h 8 km/h 74% 0 mm 19 W/m2
08:18 -1.1 °C -5.1 °C 1001.6 hPa West 6.4 km/h 8 km/h 74% 0 mm 21 W/m2
08:23 -1.1 °C -5.1 °C 1001.9 hPa WNW 4.8 km/h 9.7 km/h 74% 0 mm 25 W/m2
08:30 -0.9 °C -5.2 °C 1001.6 hPa WSW 6.4 km/h 22.5 km/h 73% 0 mm 32 W/m2
08:35 -0.9 °C -5.2 °C 1001.9 hPa WSW 6.4 km/h 22.5 km/h 73% 0 mm 30 W/m2
08:42 -0.9 °C -5.1 °C 1001.9 hPa West 6.4 km/h 6.4 km/h 73% 0 mm 32 W/m2
08:48 -0.9 °C -5.1 °C 1001.9 hPa WSW 6.4 km/h 6.4 km/h 73% 0 mm 37 W/m2
08:53 -0.9 °C -5.1 °C 1001.9 hPa WSW 4.8 km/h 8 km/h 73% 0 mm 42 W/m2
09:00 -0.9 °C -5.3 °C 1001.9 hPa NW 4.8 km/h 4.8 km/h 72% 0 mm 53 W/m2
09:05 -0.9 °C -5.3 °C 1001.9 hPa West 8 km/h 12.9 km/h 72% 0 mm 62 W/m2
09:12 -0.8 °C -5.3 °C 1002.3 hPa West 6.4 km/h 11.3 km/h 72% 0 mm 70 W/m2
09:18 -0.8 °C -5.2 °C 1002.3 hPa West 6.4 km/h 11.3 km/h 72% 0 mm 77 W/m2
09:23 -0.7 °C -5.2 °C 1001.9 hPa West 8 km/h 11.3 km/h 72% 0 mm 83 W/m2
09:29 -0.7 °C -5.3 °C 1002.3 hPa WSW 8 km/h 8 km/h 71% 0 mm 98 W/m2
09:36 -0.6 °C -5.4 °C 1002.3 hPa West 8 km/h 16.1 km/h 70% 0 mm 109 W/m2
09:42 -0.6 °C -5.6 °C 1002.3 hPa WSW 8 km/h 11.3 km/h 69% 0 mm 104 W/m2
09:48 -0.5 °C -5.7 °C 1002.3 hPa West 8 km/h 14.5 km/h 68% 0 mm 114 W/m2
09:53 -0.4 °C -5.8 °C 1002.3 hPa WSW 8 km/h 16.1 km/h 67% 0 mm 137 W/m2
10:00 -0.3 °C -5.7 °C 1002.3 hPa WSW 6.4 km/h 6.4 km/h 67% 0 mm 155 W/m2
10:06 -0.2 °C -5.8 °C 1002.3 hPa WSW 4.8 km/h 11.3 km/h 66% 0 mm 130 W/m2
10:12 -0.2 °C -5.8 °C 1002.3 hPa WSW 4.8 km/h 9.7 km/h 66% 0 mm 127 W/m2
10:18 -0.2 °C -5.8 °C 1002.3 hPa WNW 4.8 km/h 16.1 km/h 66% 0 mm 127 W/m2
10:23 -0.2 °C -5.9 °C 1002.3 hPa West 8 km/h 9.7 km/h 65% 0 mm 135 W/m2
10:30 -0.1 °C -5.7 °C 1002.3 hPa West 6.4 km/h 6.4 km/h 66% 0 mm 142 W/m2
10:36 0 °C -6 °C 1002.3 hPa West 6.4 km/h 14.5 km/h 64% 0 mm 156 W/m2
10:42 0.1 °C -5.9 °C 1002.3 hPa West 8 km/h 8 km/h 64% 0 mm 178 W/m2
10:48 0.2 °C -6.1 °C 1002.3 hPa West 8 km/h 16.1 km/h 63% 0 mm 216 W/m2
10:54 0.2 °C -6 °C 1002.3 hPa West 8 km/h 11.3 km/h 63% 0 mm 211 W/m2
11:00 0.3 °C -5.9 °C 1002.3 hPa West 9.7 km/h 9.7 km/h 63% 0 mm 214 W/m2
11:06 0.3 °C -6.1 °C 1002.3 hPa West 8 km/h 12.9 km/h 62% 0 mm 232 W/m2
11:12 0.4 °C -6.3 °C 1002.3 hPa WNW 9.7 km/h 9.7 km/h 61% 0 mm 185 W/m2
11:18 0.4 °C -6.1 °C 1002.3 hPa NW 9.7 km/h 16.1 km/h 62% 0 mm 188 W/m2
11:23 0.6 °C -5.9 °C 1002.3 hPa WSW 9.7 km/h 9.7 km/h 62% 0 mm 190 W/m2
11:29 0.6 °C -6.1 °C 1001.9 hPa West 8 km/h 8 km/h 61% 0 mm 251 W/m2
11:35 0.8 °C -5.7 °C 1001.9 hPa West 8 km/h 8 km/h 62% 0 mm 251 W/m2
11:42 0.9 °C -5.4 °C 1001.9 hPa SW 6.4 km/h 14.5 km/h 63% 0 mm 255 W/m2
11:48 0.9 °C -5.5 °C 1001.9 hPa SW 8 km/h 14.5 km/h 62% 0 mm 221 W/m2
11:54 0.8 °C -5.9 °C 1001.9 hPa WNW 9.7 km/h 16.1 km/h 61% 0 mm 220 W/m2
12:00 0.8 °C -5.5 °C 1001.9 hPa SSW 9.7 km/h 14.5 km/h 63% 0 mm 236 W/m2
12:05 0.5 °C -5.3 °C 1001.9 hPa West 9.7 km/h 14.5 km/h 65% 0 mm 264 W/m2
12:12 0.6 °C -5 °C 1001.9 hPa West 9.7 km/h 9.7 km/h 66% 0 mm 320 W/m2
12:18 0.3 °C -4.9 °C 1001.9 hPa West 9.7 km/h 12.9 km/h 68% 0 mm 237 W/m2
12:24 0.3 °C -4.5 °C 1001.9 hPa SW 8 km/h 11.3 km/h 70% 0 mm 243 W/m2
12:30 0.1 °C -4.7 °C 1001.9 hPa SSW 8 km/h 8 km/h 70% 0 mm 239 W/m2
12:36 0.2 °C -4.7 °C 1001.9 hPa West 8 km/h 11.3 km/h 70% 0 mm 178 W/m2
12:42 0.1 °C -4.7 °C 1001.9 hPa SW 8 km/h 9.7 km/h 70% 0 mm 206 W/m2
12:48 0.2 °C -4.7 °C 1001.9 hPa WSW 8 km/h 9.7 km/h 70% 0 mm 135 W/m2
12:54 -0.1 °C -4.7 °C 1001.9 hPa WSW 8 km/h 16.1 km/h 71% 0 mm 178 W/m2
13:00 -0.1 °C -4.6 °C 1001.9 hPa West 9.7 km/h 16.1 km/h 72% 0 mm 248 W/m2
13:06 -0.1 °C -4.4 °C 1001.9 hPa WNW 9.7 km/h 16.1 km/h 73% 0 mm 199 W/m2
13:12 -0.1 °C -4.3 °C 1001.9 hPa WNW 8 km/h 12.9 km/h 73% 0 mm 192 W/m2
13:18 -0.2 °C -4.1 °C 1001.6 hPa WSW 6.4 km/h 12.9 km/h 75% 0 mm 213 W/m2
13:24 -0.3 °C -4 °C 1001.6 hPa WSW 6.4 km/h 9.7 km/h 76% 0 mm 181 W/m2
13:30 -0.3 °C -3.9 °C 1001.6 hPa SW 6.4 km/h 6.4 km/h 77% 0 mm 179 W/m2
13:36 -0.4 °C -3.8 °C 1001.6 hPa WSW 6.4 km/h 9.7 km/h 78% 0 mm 134 W/m2
13:42 -0.6 °C -3.8 °C 1001.6 hPa SW 6.4 km/h 12.9 km/h 79% 0 mm 81 W/m2
13:48 -0.7 °C -3.9 °C 1001.6 hPa WSW 6.4 km/h 12.9 km/h 79% 0 mm 62 W/m2
13:54 -0.9 °C -3.9 °C 1001.6 hPa WNW 6.4 km/h 6.4 km/h 80% 0 mm 53 W/m2
14:00 -0.9 °C -3.8 °C 1001.6 hPa WSW 4.8 km/h 9.7 km/h 81% 0 mm 54 W/m2
14:12 -0.9 °C -3.7 °C 1001.6 hPa SSW 6.4 km/h 9.7 km/h 81% 0 mm 63 W/m2
14:18 -0.8 °C -3.6 °C 1001.6 hPa SSW 4.8 km/h 9.7 km/h 81% 0 mm 65 W/m2
14:23 -0.7 °C -3.7 °C 1001.6 hPa WSW 6.4 km/h 11.3 km/h 80% 0 mm 91 W/m2
14:29 -0.7 °C -3.7 °C 1001.6 hPa SW 6.4 km/h 6.4 km/h 80% 0 mm 105 W/m2
14:35 -0.6 °C -3.8 °C 1001.6 hPa SW 6.4 km/h 6.4 km/h 79% 0 mm 130 W/m2
14:42 -0.4 °C -3.8 °C 1001.2 hPa SW 6.4 km/h 9.7 km/h 78% 0 mm 116 W/m2
14:48 -0.3 °C -3.9 °C 1001.2 hPa South 6.4 km/h 9.7 km/h 77% 0 mm 104 W/m2
14:54 -0.2 °C -3.8 °C 1001.6 hPa WSW 8 km/h 8 km/h 77% 0 mm 81 W/m2
14:59 -0.2 °C -3.9 °C 1001.6 hPa SW 6.4 km/h 8 km/h 76% 0 mm 77 W/m2
15:05 -0.2 °C -3.9 °C 1001.6 hPa SW 6.4 km/h 12.9 km/h 76% 0 mm 56 W/m2
15:12 -0.3 °C -4.1 °C 1001.9 hPa WSW 6.4 km/h 6.4 km/h 76% 0 mm 33 W/m2
15:18 -0.6 °C -4.3 °C 1001.6 hPa SW 8 km/h 11.3 km/h 76% 0 mm 53 W/m2
15:24 -0.6 °C -4.2 °C 1001.6 hPa SW 8 km/h 8 km/h 77% 0 mm 42 W/m2
15:30 -0.6 °C -4.2 °C 1001.9 hPa WSW 6.4 km/h 6.4 km/h 77% 0 mm 40 W/m2
15:35 -0.7 °C -4.3 °C 1001.9 hPa WSW 8 km/h 11.3 km/h 77% 0 mm 33 W/m2
15:42 -0.8 °C -4 °C 1001.9 hPa WSW 6.4 km/h 8 km/h 79% 0 mm 46 W/m2
15:48 -0.9 °C -3.9 °C 1001.9 hPa SSW 6.4 km/h 9.7 km/h 80% 0 mm 33 W/m2
15:54 -0.9 °C -3.8 °C 1001.9 hPa WSW 6.4 km/h 8 km/h 81% 0 mm 26 W/m2
16:00 -0.9 °C -3.6 °C 1001.9 hPa WSW 6.4 km/h 6.4 km/h 82% 0 mm 26 W/m2
16:06 -0.9 °C -3.6 °C 1001.9 hPa SW 4.8 km/h 9.7 km/h 82% 0 mm 18 W/m2
16:12 -0.9 °C -3.8 °C 1001.9 hPa WSW 6.4 km/h 9.7 km/h 81% 0 mm 19 W/m2
16:18 -0.9 °C -3.8 °C 1001.9 hPa WSW 6.4 km/h 9.7 km/h 81% 0 mm 14 W/m2
16:23 -0.9 °C -3.8 °C 1001.9 hPa SW 4.8 km/h 9.7 km/h 81% 0 mm 14 W/m2
16:29 -0.9 °C -3.9 °C 1001.9 hPa SW 4.8 km/h 4.8 km/h 80% 0 mm 12 W/m2
16:36 -1 °C -3.8 °C 1001.9 hPa SSW 4.8 km/h 11.3 km/h 81% 0 mm 9 W/m2
16:42 -1 °C -3.8 °C 1001.9 hPa WSW 4.8 km/h 4.8 km/h 81% 0 mm 5 W/m2
16:48 -1.1 °C -4.1 °C 1001.9 hPa West 4.8 km/h 6.4 km/h 80% 0 mm 0 W/m2
16:54 -1.1 °C -4.1 °C 1001.9 hPa SW 4.8 km/h 9.7 km/h 80% 0 mm 0 W/m2
17:00 -1.1 °C -4.1 °C 1001.9 hPa WSW 3.2 km/h 9.7 km/h 80% 0 mm 0 W/m2
17:06 -1.1 °C -3.9 °C 1001.9 hPa SSE 4.8 km/h 9.7 km/h 81% 0 mm 0 W/m2
17:12 -1.2 °C -3.8 °C 1001.9 hPa SSW 4.8 km/h 4.8 km/h 82% 0 mm 0 W/m2
17:18 -1.2 °C -3.9 °C 1001.9 hPa WSW 4.8 km/h 9.7 km/h 82% 0 mm 0 W/m2
17:24 -1.3 °C -3.9 °C 1002.3 hPa West 4.8 km/h 11.3 km/h 82% 0 mm 0 W/m2
17:30 -1.3 °C -4 °C 1002.3 hPa SW 4.8 km/h 4.8 km/h 82% 0 mm 0 W/m2
17:35 -1.4 °C -3.9 °C 1002.3 hPa SSW 4.8 km/h 6.4 km/h 83% 0 mm 0 W/m2
17:42 -1.4 °C -3.9 °C 1002.3 hPa WSW 4.8 km/h 4.8 km/h 83% 0 mm 0 W/m2
17:48 -1.4 °C -3.8 °C 1002.3 hPa SW 4.8 km/h 4.8 km/h 84% 0 mm 0 W/m2
17:54 -1.4 °C -3.8 °C 1002.3 hPa West 4.8 km/h 4.8 km/h 84% 0 mm 0 W/m2
18:00 -1.4 °C -3.8 °C 1002.3 hPa SSW 4.8 km/h 4.8 km/h 84% 0 mm 0 W/m2
18:06 -1.4 °C -3.8 °C 1002.3 hPa SSW 4.8 km/h 6.4 km/h 84% 0 mm 0 W/m2
18:12 -1.4 °C -3.9 °C 1002.3 hPa SSW 4.8 km/h 6.4 km/h 83% 0 mm 0 W/m2
18:18 -1.4 °C -3.9 °C 1002.3 hPa SW 3.2 km/h 6.4 km/h 83% 0 mm 0 W/m2
18:23 -1.4 °C -3.9 °C 1002.3 hPa SSW 4.8 km/h 11.3 km/h 83% 0 mm 0 W/m2
18:30 -1.4 °C -3.7 °C 1002.3 hPa South 4.8 km/h 4.8 km/h 84% 0 mm 0 W/m2
18:35 -1.4 °C -3.8 °C 1002.3 hPa South 6.4 km/h 6.4 km/h 84% 0 mm 0 W/m2
18:42 -1.5 °C -3.8 °C 1002.3 hPa West 6.4 km/h 8 km/h 84% 0 mm 0 W/m2
18:48 -1.6 °C -3.7 °C 1002.3 hPa SW 4.8 km/h 8 km/h 85% 0 mm 0 W/m2
18:54 -1.6 °C -3.7 °C 1002.3 hPa SW 3.2 km/h 4.8 km/h 85% 0 mm 0 W/m2
19:00 -1.6 °C -3.7 °C 1002.3 hPa SW 3.2 km/h 3.2 km/h 85% 0 mm 0 W/m2
19:06 -1.6 °C -3.9 °C 1002.3 hPa South 3.2 km/h 4.8 km/h 84% 0 mm 0 W/m2
19:12 -1.4 °C -3.8 °C 1002.3 hPa SW 3.2 km/h 3.2 km/h 84% 0 mm 0 W/m2
19:18 -1.4 °C -3.9 °C 1002.3 hPa SSW 3.2 km/h 4.8 km/h 83% 0 mm 0 W/m2
19:24 -1.4 °C -4.1 °C 1002.3 hPa SSW 3.2 km/h 6.4 km/h 82% 0 mm 0 W/m2
19:29 -1.3 °C -4 °C 1002.3 hPa South 3.2 km/h 4.8 km/h 82% 0 mm 0 W/m2
19:36 -1.3 °C -4 °C 1002.3 hPa South 3.2 km/h 4.8 km/h 82% 0 mm 0 W/m2
19:42 -1.3 °C -3.9 °C 1002.3 hPa South 1.6 km/h 4.8 km/h 82% 0 mm 0 W/m2
19:48 -1.2 °C -3.9 °C 1002.3 hPa South 3.2 km/h 4.8 km/h 82% 0 mm 0 W/m2
19:53 -1.2 °C -3.9 °C 1002.3 hPa South 3.2 km/h 3.2 km/h 82% 0 mm 0 W/m2
19:59 -1.2 °C -4.1 °C 1002.3 hPa SSE 1.6 km/h 4.8 km/h 81% 0 mm 0 W/m2
20:05 -1.2 °C -4 °C 1002.3 hPa SSE 3.2 km/h 8 km/h 81% 0 mm 0 W/m2
20:12 -1.1 °C -4.1 °C 1002.3 hPa SSW 3.2 km/h 6.4 km/h 80% 0 mm 0 W/m2
20:18 -1.1 °C -4.1 °C 1002.3 hPa South 4.8 km/h 6.4 km/h 80% 0 mm 0 W/m2
20:24 -1 °C -4.2 °C 1002.3 hPa South 4.8 km/h 6.4 km/h 79% 0 mm 0 W/m2
20:29 -0.9 °C -4.4 °C 1002.3 hPa SSW 4.8 km/h 4.8 km/h 77% 0 mm 0 W/m2
20:35 -0.7 °C -4.4 °C 1002.3 hPa SSW 3.2 km/h 4.8 km/h 76% 0 mm 0 W/m2
20:42 -0.6 °C -4.7 °C 1002.3 hPa West 4.8 km/h 4.8 km/h 74% 0 mm 0 W/m2
20:48 -0.6 °C -4.8 °C 1002.3 hPa West 3.2 km/h 4.8 km/h 73% 0 mm 0 W/m2
20:59 -0.3 °C -5.1 °C 1002.3 hPa WNW 4.8 km/h 4.8 km/h 70% 0 mm 0 W/m2
21:05 -0.3 °C -5.1 °C 1002.3 hPa SW 4.8 km/h 6.4 km/h 70% 0 mm 0 W/m2
21:12 -0.2 °C -5.2 °C 1002.3 hPa SSW 4.8 km/h 9.7 km/h 69% 0 mm 0 W/m2
21:18 -0.2 °C -5.2 °C 1002.3 hPa SSW 6.4 km/h 9.7 km/h 69% 0 mm 0 W/m2
21:24 -0.2 °C -5.4 °C 1002.3 hPa WSW 4.8 km/h 6.4 km/h 68% 0 mm 0 W/m2
21:29 -0.1 °C -5.3 °C 1002.3 hPa West 4.8 km/h 4.8 km/h 68% 0 mm 0 W/m2
21:36 -0.1 °C -5.3 °C 1002.3 hPa SW 4.8 km/h 6.4 km/h 68% 0 mm 0 W/m2
21:42 -0.2 °C -5.4 °C 1002.3 hPa SW 4.8 km/h 6.4 km/h 68% 0 mm 0 W/m2
21:48 -0.2 °C -5.2 °C 1002.3 hPa SW 4.8 km/h 8 km/h 69% 0 mm 0 W/m2
21:53 -0.2 °C -5.4 °C 1002.3 hPa SSW 4.8 km/h 9.7 km/h 68% 0 mm 0 W/m2
21:59 -0.2 °C -5.4 °C 1002.3 hPa WSW 6.4 km/h 6.4 km/h 68% 0 mm 0 W/m2
22:05 -0.1 °C -5.3 °C 1002.3 hPa SW 6.4 km/h 8 km/h 68% 0 mm 0 W/m2
22:18 -0.2 °C -5.2 °C 1002.3 hPa SW 4.8 km/h 6.4 km/h 69% 0 mm 0 W/m2
22:24 -0.2 °C -5.2 °C 1002.3 hPa SW 4.8 km/h 8 km/h 69% 0 mm 0 W/m2
22:30 -0.2 °C -5.2 °C 1002.3 hPa SSW 4.8 km/h 11.3 km/h 69% 0 mm 0 W/m2
22:35 -0.2 °C -5.2 °C 1002.3 hPa West 4.8 km/h 11.3 km/h 69% 0 mm 0 W/m2
22:42 -0.2 °C -5 °C 1001.9 hPa SW 6.4 km/h 6.4 km/h 70% 0 mm 0 W/m2
22:48 -0.2 °C -5.1 °C 1001.9 hPa SW 4.8 km/h 6.4 km/h 70% 0 mm 0 W/m2
22:54 -0.2 °C -5.1 °C 1001.9 hPa West 4.8 km/h 9.7 km/h 70% 0 mm 0 W/m2
23:00 -0.2 °C -5.1 °C 1001.9 hPa SW 6.4 km/h 6.4 km/h 70% 0 mm 0 W/m2
23:06 -0.2 °C -5.1 °C 1001.9 hPa WSW 6.4 km/h 8 km/h 70% 0 mm 0 W/m2
23:12 -0.2 °C -5.1 °C 1001.9 hPa WSW 8 km/h 11.3 km/h 70% 0 mm 0 W/m2
23:18 -0.2 °C -4.8 °C 1001.9 hPa SW 8 km/h 11.3 km/h 71% 0 mm 0 W/m2
23:23 -0.2 °C -4.8 °C 1001.9 hPa SSW 8 km/h 12.9 km/h 71% 0 mm 0 W/m2
23:30 -0.2 °C -4.8 °C 1001.6 hPa SSW 6.4 km/h 6.4 km/h 71% 0 mm 0 W/m2
23:36 -0.3 °C -4.9 °C 1001.6 hPa SW 6.4 km/h 12.9 km/h 71% 0 mm 0 W/m2
23:42 -0.3 °C -4.9 °C 1001.6 hPa SW 6.4 km/h 6.4 km/h 71% 0 mm 0 W/m2
23:49 -0.3 °C -4.8 °C 1001.2 hPa SSW 4.8 km/h 4.8 km/h 72% 0 mm 0 W/m2
23:56 -0.3 °C -4.8 °C 1001.2 hPa SSW 4.8 km/h 8 km/h 72% 0 mm 0 W/m2
Country Meadow, Clay, NY, USA
Compliments of Weather Underground - 2 mb